Location: C�mpuri de-Sus
(45.9500°N, 22.5500°E)
Time: 06:24:03
(UTC+00:00)

Cosmos 839 Rocket - Pass Details

Date: 04 December 2023
Orbit: 960 x 2092 km, 65.9° (Epoch: 04 March)

Event Time Altitude Azimuth Distance (km) Brightness Sun altitude
Exits shadow 01:34:50 63° 144° (SE) 2,287 5.7 -44.1°
Maximum altitude 01:36:10 66° 115° (ESE) 2,245 5.7 -43.9°
Drops below altitude 10° 01:47:57 10° 38° (NE) 4,449 7.8 -41.9°
Sets 01:51:13 0° 36° (NE) 5,362 8.3 -41.3°
